| time (UTC) | temp F | wind direction | speed knots | gust knots | rain 1hr in | rain 24hr in | rain mn in | humidity % | barometer mb |
| 20260906201643 | 102 | 242 | 1.7 | 12.2 | 0.00 | 0.00 | 0.00 | 27 | 1012.3 |
| 20260906201143 | 102 | 131 | 1.7 | 12.2 | 0.00 | 0.00 | 0.00 | 28 | 1012.3 |
| 20260906200642 | 102 | 222 | 5.2 | 12.2 | 0.00 | 0.00 | 0.00 | 28 | 1012.4 |
| 20260906195643 | 102 | 184 | 0.9 | 10.4 | 0.00 | 0.00 | 0.00 | 30 | 1012.5 |
| 20260906194143 | 100 | 126 | 4.3 | 11.3 | 0.00 | 0.00 | 0.00 | 31 | 1012.8 |
| 20260906193642 | 100 | 163 | 2.6 | 10.4 | 0.00 | 0.00 | 0.00 | 31 | 1012.8 |
| 20260906193143 | 101 | 178 | 7.0 | 10.4 | 0.00 | 0.00 | 0.00 | 31 | 1012.9 |
| 20260906192143 | 100 | 187 | 0.9 | 11.3 | 0.00 | 0.00 | 0.00 | 33 | 1013.1 |
| 20260906191143 | 99 | 243 | 7.0 | 14.8 | 0.00 | 0.00 | 0.00 | 33 | 1013.1 |
| 20260906190142 | 100 | 129 | 14.8 | 17.4 | 0.00 | 0.00 | 0.00 | 33 | 1013.3 |
| 20260906185643 | 100 | 267 | 5.2 | 10.4 | 0.00 | 0.00 | 0.00 | 33 | 1013.3 |
| 20260906185143 | 100 | 249 | 5.2 | 11.3 | 0.00 | 0.00 | 0.00 | 33 | 1013.4 |
| 20260906184643 | 100 | 186 | 6.1 | 11.3 | 0.00 | 0.00 | 0.00 | 34 | 1013.5 |
| 20260906184143 | 100 | 95 | 0.9 | 7.8 | 0.00 | 0.00 | 0.00 | 34 | 1013.6 |
| 20260906183643 | 99 | 205 | 1.7 | 10.4 | 0.00 | 0.00 | 0.00 | 35 | 1013.5 |
| 20260906183143 | 100 | 255 | 6.1 | 10.4 | 0.00 | 0.00 | 0.00 | 34 | 1013.7 |
| 20260906182643 | 99 | 242 | 2.6 | 11.3 | 0.00 | 0.00 | 0.00 | 34 | 1013.7 |
| 20260906182143 | 99 | 324 | 6.1 | 11.3 | 0.00 | 0.00 | 0.00 | 34 | 1013.8 |
| 20260906181642 | 99 | 138 | 0.9 | 11.3 | 0.00 | 0.00 | 0.00 | 36 | 1014.0 |
| 20260906175643 | 99 | 113 | 2.6 | 10.4 | 0.00 | 0.00 | 0.00 | 35 | 1014.2 |
| 20260906175142 | 99 | 189 | 1.7 | 10.4 | 0.00 | 0.00 | 0.00 | 37 | 1014.5 |
| 20260906174642 | 99 | 157 | 4.3 | 10.4 | 0.00 | 0.00 | 0.00 | 35 | 1014.4 |
| 20260906174143 | 99 | 159 | 2.6 | 11.3 | 0.00 | 0.00 | 0.00 | 36 | 1014.7 |
| 20260906173642 | 99 | 181 | 7.0 | 11.3 | 0.00 | 0.00 | 0.00 | 37 | 1014.7 |
| 20260906173142 | 98 | 159 | 11.3 | 11.3 | 0.00 | 0.00 | 0.00 | 37 | 1014.8 |
| 20260906172643 | 98 | 178 | 2.6 | 11.3 | 0.00 | 0.00 | 0.00 | 38 | 1014.9 |
| 20260906172143 | 97 | 156 | 6.1 | 11.3 | 0.00 | 0.00 | 0.00 | 40 | 1014.9 |
| 20260906171642 | 96 | 175 | 5.2 | 10.4 | 0.00 | 0.00 | 0.00 | 39 | 1015.0 |
| 20260906170642 | 96 | 122 | 1.7 | 11.3 | 0.00 | 0.00 | 0.00 | 38 | 1015.1 |
| 20260906170143 | 97 | 105 | 7.0 | 11.3 | 0.00 | 0.00 | 0.00 | 39 | 1015.2 |
| 20260906165643 | 96 | 147 | 6.1 | 8.7 | 0.00 | 0.00 | 0.00 | 40 | 1015.3 |
| 20260906165143 | 96 | 156 | 0.9 | 3.5 | 0.00 | 0.00 | 0.00 | 40 | 1015.4 |
| 20260906164643 | 96 | 157 | 0.9 | 6.1 | 0.00 | 0.00 | 0.00 | 41 | 1015.5 |
| 20260906164143 | 96 | 157 | 1.7 | 7.8 | 0.00 | 0.00 | 0.00 | 41 | 1015.6 |
| 20260906163643 | 96 | 184 | 5.2 | 7.8 | 0.00 | 0.00 | 0.00 | 41 | 1015.6 |
| 20260906163143 | 96 | 128 | 1.7 | 7.0 | 0.00 | 0.00 | 0.00 | 41 | 1015.6 |
| 20260906162643 | 96 | 203 | 0.9 | 4.3 | 0.00 | 0.00 | 0.00 | 42 | 1015.6 |
| 20260906161143 | 95 | 224 | 0.9 | 7.0 | 0.00 | 0.00 | 0.00 | 42 | 1015.4 |
| 20260906160642 | 95 | 162 | 2.6 | 7.0 | 0.00 | 0.00 | 0.00 | 43 | 1015.4 |
| 20260906160142 | 95 | 186 | 2.6 | 4.3 | 0.00 | 0.00 | 0.00 | 45 | 1015.4 |
| 20260906155642 | 94 | 337 | 1.7 | 4.3 | 0.00 | 0.00 | 0.00 | 44 | 1015.5 |
| 20260906155142 | 93 | 296 | 1.7 | 4.3 | 0.00 | 0.00 | 0.00 | 45 | 1015.4 |
| 20260906154143 | 93 | 163 | 2.6 | 4.3 | 0.00 | 0.00 | 0.00 | 46 | 1015.4 |
| 20260906153643 | 93 | 203 | 0.9 | 7.0 | 0.00 | 0.00 | 0.00 | 46 | 1015.3 |
| 20260906153143 | 93 | 255 | 5.2 | 7.0 | 0.00 | 0.00 | 0.00 | 45 | 1015.3 |
| 20260906152643 | 93 | 199 | 2.6 | 6.1 | 0.00 | 0.00 | 0.00 | 49 | 1015.2 |
| 20260906152142 | 92 | 201 | 2.6 | 7.0 | 0.00 | 0.00 | 0.00 | 47 | 1015.2 |
| 20260906151143 | 92 | 179 | 2.6 | 4.3 | 0.00 | 0.00 | 0.00 | 49 | 1015.2 |
| 20260906150642 | 92 | 178 | 5.2 | 4.3 | 0.00 | 0.00 | 0.00 | 48 | 1015.2 |
| 20260906145642 | 91 | 161 | 0.9 | 3.5 | 0.00 | 0.00 | 0.00 | 49 | 1015.1 |
| 20260906145142 | 90 | 161 | 0.9 | 3.5 | 0.00 | 0.00 | 0.00 | 50 | 1015.1 |
| 20260906144643 | 89 | 180 | 0.9 | 3.5 | 0.00 | 0.00 | 0.00 | 53 | 1015.2 |
| 20260906144142 | 89 | 207 | 1.7 | 3.5 | 0.00 | 0.00 | 0.00 | 54 | 1015.2 |
| 20260906143643 | 88 | 207 | 2.6 | 3.5 | 0.00 | 0.00 | 0.00 | 53 | 1015.1 |
| 20260906143143 | 88 | 207 | 0.9 | 3.5 | 0.00 | 0.00 | 0.00 | 56 | 1015.1 |
| 20260906142142 | 87 | 207 | 2.6 | 6.1 | 0.00 | 0.00 | 0.00 | 56 | 1015.1 |
| 20260906141642 | 86 | 184 | 6.1 | 6.1 | 0.00 | 0.00 | 0.00 | 57 | 1015.1 |
| 20260906141143 | 86 | 133 | 0.9 | 3.5 | 0.00 | 0.00 | 0.00 | 58 | 1015.1 |
| 20260906140642 | 85 | 133 | 2.6 | 2.6 | 0.00 | 0.00 | 0.00 | 59 | 1014.9 |
| 20260906140142 | 85 | 133 | 0.9 | 2.6 | 0.00 | 0.00 | 0.00 | 61 | 1014.9 |
| 20260906135642 | 84 | 133 | 0.9 | 2.6 | 0.00 | 0.00 | 0.00 | 59 | 1014.9 |
| 20260906135142 | 84 | 133 | 1.7 | 0.9 | 0.00 | 0.00 | 0.00 | 59 | 1014.8 |
| 20260906134642 | 83 | 133 | 0.9 | 3.5 | 0.00 | 0.00 | 0.00 | 61 | 1014.8 |
| 20260906134142 | 82 | 133 | 0.9 | 3.5 | 0.00 | 0.00 | 0.00 | 61 | 1014.7 |
| 20260906133142 | 82 | 118 | 0.9 | 2.6 | 0.00 | 0.00 | 0.00 | 62 | 1014.7 |
| 20260906132642 | 82 | 118 | 0.9 | 0.9 | 0.00 | 0.00 | 0.00 | 63 | 1014.7 |
| 20260906132143 | 81 | 106 | 0.9 | 0.0 | 0.00 | 0.00 | 0.00 | 64 | 1014.6 |
| 20260906131642 | 81 | 106 | 0.9 | 0.0 | 0.00 | 0.00 | 0.00 | 65 | 1014.5 |
| 20260906131143 | 80 | 106 | 0.9 | 0.0 | 0.00 | 0.00 | 0.00 | 66 | 1014.4 |
| 20260906130642 | 80 | 106 | 0.9 | 0.0 | 0.00 | 0.00 | 0.00 | 66 | 1014.4 |
| 20260906130142 | 79 | 106 | 0.9 | 0.0 | 0.00 | 0.00 | 0.00 | 68 | 1014.3 |
| 20260906125642 | 79 | 106 | 0.9 | 0.0 | 0.00 | 0.00 | 0.00 | 68 | 1014.3 |
| 20260906125143 | 79 | 106 | 0.9 | 0.0 | 0.00 | 0.00 | 0.00 | 68 | 1014.3 |
| 20260906124643 | 78 | 106 | 0.9 | 0.0 | 0.00 | 0.00 | 0.00 | 68 | 1014.3 |
| 20260906124142 | 78 | 106 | 0.9 | 0.0 | 0.00 | 0.00 | 0.00 | 68 | 1014.3 |
| 20260906123642 | 78 | 106 | 0.9 | 0.0 | 0.00 | 0.00 | 0.00 | 68 | 1014.2 |
| 20260906123143 | 78 | 106 | 0.9 | 0.0 | 0.00 | 0.00 | 0.00 | 68 | 1014.2 |
| 20260906122642 | 77 | 106 | 0.9 | 0.0 | 0.00 | 0.00 | 0.00 | 68 | 1014.1 |
| 20260906122142 | 77 | 106 | 0.9 | 0.0 | 0.00 | 0.00 | 0.00 | 68 | 1014.1 |
| 20260906121642 | 77 | 106 | 0.9 | 0.0 | 0.00 | 0.00 | 0.00 | 68 | 1013.9 |
| 20260906121142 | 77 | 106 | 0.9 | 0.0 | 0.00 | 0.00 | 0.00 | 68 | 1013.9 |
| 20260906120642 | 77 | 106 | 0.9 | 0.0 | 0.00 | 0.00 | 0.00 | 68 | 1013.8 |
| 20260906120143 | 77 | 106 | 0.9 | 0.0 | 0.00 | 0.00 | 0.00 | 68 | 1013.9 |
| 20260906115642 | 77 | 106 | 0.9 | 0.0 | 0.00 | 0.00 | 0.00 | 68 | 1013.8 |
| 20260906115143 | 77 | 106 | 0.9 | 0.0 | 0.00 | 0.00 | 0.00 | 68 | 1013.7 |
| 20260906114142 | 77 | 106 | 0.9 | 0.0 | 0.00 | 0.00 | 0.00 | 68 | 1013.9 |
| 20260906113642 | 77 | 106 | 0.9 | 0.0 | 0.00 | 0.00 | 0.00 | 68 | 1013.7 |
| 20260906113142 | 77 | 106 | 0.9 | 0.0 | 0.00 | 0.00 | 0.00 | 68 | 1013.6 |
| 20260906112642 | 77 | 106 | 0.9 | 0.0 | 0.00 | 0.00 | 0.00 | 68 | 1013.6 |
| 20260906112142 | 77 | 106 | 0.9 | 0.0 | 0.00 | 0.00 | 0.00 | 67 | 1013.5 |
| 20260906111643 | 77 | 106 | 0.9 | 0.0 | 0.00 | 0.00 | 0.00 | 67 | 1013.4 |
| 20260906110142 | 77 | 106 | 0.9 | 0.0 | 0.00 | 0.00 | 0.00 | 67 | 1013.4 |
| 20260906105642 | 77 | 106 | 0.9 | 0.0 | 0.00 | 0.00 | 0.00 | 67 | 1013.4 |
| 20260906105143 | 77 | 106 | 0.9 | 0.0 | 0.00 | 0.00 | 0.00 | 67 | 1013.3 |
| 20260906104642 | 77 | 106 | 0.9 | 0.0 | 0.00 | 0.00 | 0.00 | 67 | 1013.3 |
| 20260906104142 | 77 | 106 | 0.9 | 0.0 | 0.00 | 0.00 | 0.00 | 67 | 1013.3 |
| 20260906103642 | 77 | 106 | 0.9 | 0.0 | 0.00 | 0.00 | 0.00 | 67 | 1013.3 |
| 20260906103143 | 77 | 106 | 0.9 | 0.0 | 0.00 | 0.00 | 0.00 | 67 | 1013.3 |
| 20260906102642 | 77 | 106 | 0.9 | 0.0 | 0.00 | 0.00 | 0.00 | 67 | 1013.3 |
| 20260906102142 | 77 | 106 | 0.9 | 0.0 | 0.00 | 0.00 | 0.00 | 67 | 1013.2 |
| 20260906101642 | 77 | 106 | 0.9 | 0.0 | 0.00 | 0.00 | 0.00 | 67 | 1013.1 |
| 20260906101143 | 77 | 106 | 0.9 | 0.0 | 0.00 | 0.00 | 0.00 | 66 | 1013.1 |
| 20260906100642 | 78 | 106 | 0.9 | 0.0 | 0.00 | 0.00 | 0.00 | 66 | 1013.2 |
| 20260906100143 | 78 | 106 | 0.9 | 0.0 | 0.00 | 0.00 | 0.00 | 66 | 1013.2 |
| 20260906095642 | 78 | 106 | 0.9 | 0.0 | 0.00 | 0.00 | 0.00 | 65 | 1013.2 |
| 20260906095142 | 78 | 106 | 0.9 | 0.0 | 0.00 | 0.00 | 0.00 | 65 | 1013.2 |
| 20260906094643 | 78 | 106 | 0.9 | 0.0 | 0.00 | 0.00 | 0.00 | 65 | 1013.2 |
| 20260906094143 | 78 | 106 | 0.9 | 0.0 | 0.00 | 0.00 | 0.00 | 65 | 1013.2 |
| 20260906093143 | 78 | 106 | 0.9 | 0.0 | 0.00 | 0.00 | 0.00 | 65 | 1013.1 |
| 20260906092642 | 78 | 106 | 0.9 | 0.0 | 0.00 | 0.00 | 0.00 | 64 | 1013.2 |
| 20260906092142 | 78 | 106 | 0.9 | 0.0 | 0.00 | 0.00 | 0.00 | 64 | 1013.2 |
| 20260906090643 | 79 | 106 | 0.9 | 0.0 | 0.00 | 0.00 | 0.00 | 64 | 1013.3 |
| 20260906090142 | 79 | 106 | 0.9 | 0.0 | 0.00 | 0.00 | 0.00 | 64 | 1013.4 |
| 20260906085642 | 79 | 106 | 0.9 | 0.0 | 0.00 | 0.00 | 0.00 | 64 | 1013.2 |
| 20260906085142 | 79 | 106 | 0.9 | 0.0 | 0.00 | 0.00 | 0.00 | 63 | 1013.2 |
| 20260906084142 | 79 | 106 | 0.9 | 0.0 | 0.00 | 0.00 | 0.00 | 63 | 1013.2 |
| 20260906083642 | 79 | 106 | 0.9 | 0.0 | 0.00 | 0.00 | 0.00 | 63 | 1013.2 |
| 20260906083143 | 79 | 106 | 0.9 | 0.0 | 0.00 | 0.00 | 0.00 | 63 | 1013.1 |
| 20260906082642 | 79 | 106 | 0.9 | 0.0 | 0.00 | 0.00 | 0.00 | 62 | 1013.1 |
| 20260906082142 | 80 | 106 | 0.9 | 0.0 | 0.00 | 0.00 | 0.00 | 62 | 1013.0 |
| 20260906081142 | 80 | 106 | 0.9 | 0.0 | 0.00 | 0.00 | 0.00 | 61 | 1013.0 |
| 20260906080642 | 80 | 106 | 0.9 | 0.0 | 0.00 | 0.00 | 0.00 | 61 | 1013.1 |
| 20260906080142 | 80 | 106 | 0.9 | 0.0 | 0.00 | 0.00 | 0.00 | 60 | 1013.0 |
| 20260906075642 | 80 | 106 | 0.9 | 0.0 | 0.00 | 0.00 | 0.00 | 60 | 1013.0 |
| 20260906075143 | 80 | 106 | 0.9 | 0.0 | 0.00 | 0.00 | 0.00 | 60 | 1013.0 |
| 20260906074642 | 80 | 106 | 0.9 | 0.0 | 0.00 | 0.00 | 0.00 | 60 | 1013.0 |
| 20260906074142 | 81 | 106 | 0.9 | 0.0 | 0.00 | 0.00 | 0.00 | 59 | 1013.1 |
| 20260906073642 | 81 | 106 | 0.9 | 0.0 | 0.00 | 0.00 | 0.00 | 60 | 1013.1 |
| 20260906073142 | 81 | 106 | 0.9 | 0.0 | 0.00 | 0.00 | 0.00 | 59 | 1013.1 |
| 20260906072642 | 81 | 106 | 0.9 | 0.0 | 0.00 | 0.00 | 0.00 | 58 | 1013.1 |
| 20260906072142 | 81 | 106 | 0.9 | 0.0 | 0.00 | 0.00 | 0.00 | 58 | 1013.1 |
| 20260906071642 | 81 | 106 | 0.9 | 0.0 | 0.00 | 0.00 | 0.00 | 58 | 1013.1 |
| 20260906070642 | 81 | 106 | 0.9 | 0.0 | 0.00 | 0.00 | 0.00 | 59 | 1013.1 |
| 20260906070142 | 81 | 106 | 0.9 | 0.0 | 0.00 | 0.00 | 0.00 | 59 | 1013.1 |
| 20260906065143 | 81 | 106 | 0.9 | 0.0 | 0.00 | 0.00 | 0.00 | 58 | 1013.1 |
| 20260906064642 | 81 | 106 | 0.9 | 0.0 | 0.00 | 0.00 | 0.00 | 58 | 1013.0 |
| 20260906064142 | 81 | 106 | 0.9 | 0.0 | 0.00 | 0.00 | 0.00 | 58 | 1013.0 |
| 20260906063642 | 81 | 106 | 0.9 | 0.0 | 0.00 | 0.00 | 0.00 | 58 | 1013.0 |
| 20260906063142 | 82 | 106 | 0.9 | 0.0 | 0.00 | 0.00 | 0.00 | 57 | 1013.1 |
| 20260906062642 | 82 | 106 | 0.9 | 0.0 | 0.00 | 0.00 | 0.00 | 57 | 1013.1 |
| 20260906062142 | 82 | 106 | 0.9 | 0.0 | 0.00 | 0.00 | 0.00 | 57 | 1013.2 |
| 20260906061642 | 82 | 106 | 0.9 | 0.0 | 0.00 | 0.00 | 0.00 | 56 | 1013.2 |
| 20260906060642 | 82 | 106 | 0.9 | 0.0 | 0.00 | 0.00 | 0.00 | 56 | 1013.2 |
| 20260906060142 | 82 | 106 | 0.9 | 0.0 | 0.00 | 0.00 | 0.00 | 56 | 1013.1 |
| 20260906055642 | 82 | 106 | 0.9 | 3.5 | 0.00 | 0.00 | 0.00 | 56 | 1013.1 |
| 20260906055142 | 82 | 106 | 0.9 | 3.5 | 0.00 | 0.00 | 0.00 | 56 | 1013.2 |
| 20260906054642 | 82 | 105 | 0.9 | 2.6 | 0.00 | 0.00 | 0.00 | 56 | 1013.2 |
| 20260906054142 | 82 | 105 | 0.9 | 4.3 | 0.00 | 0.00 | 0.00 | 56 | 1013.1 |
| 20260906053642 | 82 | 105 | 1.7 | 7.0 | 0.00 | 0.00 | 0.00 | 56 | 1013.1 |
| 20260906053142 | 82 | 105 | 5.2 | 7.0 | 0.00 | 0.00 | 0.00 | 56 | 1013.2 |
| 20260906052642 | 82 | 115 | 4.3 | 7.0 | 0.00 | 0.00 | 0.00 | 56 | 1013.1 |
| 20260906052142 | 82 | 116 | 1.7 | 7.0 | 0.00 | 0.00 | 0.00 | 56 | 1012.9 |
| 20260906051142 | 83 | 114 | 4.3 | 10.4 | 0.00 | 0.00 | 0.00 | 56 | 1012.9 |
| 20260906050642 | 83 | 133 | 10.4 | 10.4 | 0.00 | 0.00 | 0.00 | 55 | 1013.0 |
| 20260906050142 | 83 | 137 | 0.9 | 0.0 | 0.00 | 0.00 | 0.00 | 55 | 1012.7 |
| 20260906045142 | 84 | 137 | 0.9 | 0.0 | 0.00 | 0.00 | 0.00 | 54 | 1012.7 |
| 20260906044142 | 84 | 137 | 0.9 | 0.0 | 0.00 | 0.00 | 0.00 | 53 | 1012.9 |
| 20260906043643 | 84 | 137 | 0.9 | 0.0 | 0.00 | 0.00 | 0.00 | 53 | 1012.8 |
| 20260906043142 | 84 | 137 | 0.9 | 0.0 | 0.00 | 0.00 | 0.00 | 53 | 1012.8 |
| 20260906042642 | 85 | 137 | 0.9 | 0.0 | 0.00 | 0.00 | 0.00 | 52 | 1012.8 |
| 20260906042142 | 85 | 137 | 0.9 | 0.0 | 0.00 | 0.00 | 0.00 | 52 | 1012.7 |
| 20260906041642 | 85 | 137 | 0.9 | 0.0 | 0.00 | 0.00 | 0.00 | 52 | 1012.8 |
| 20260906041142 | 85 | 137 | 0.9 | 0.0 | 0.00 | 0.00 | 0.00 | 52 | 1012.7 |
| 20260906040642 | 86 | 137 | 0.9 | 0.0 | 0.00 | 0.00 | 0.00 | 51 | 1012.8 |
| 20260906040142 | 86 | 137 | 0.9 | 0.0 | 0.00 | 0.00 | 0.00 | 51 | 1012.8 |
| 20260906035642 | 86 | 137 | 0.9 | 0.0 | 0.00 | 0.00 | 0.00 | 51 | 1012.9 |
| 20260906035142 | 86 | 137 | 0.9 | 0.0 | 0.00 | 0.00 | 0.00 | 51 | 1012.9 |
| 20260906034642 | 87 | 137 | 0.9 | 0.0 | 0.00 | 0.00 | 0.00 | 50 | 1013.0 |
| 20260906034142 | 87 | 137 | 0.9 | 0.0 | 0.00 | 0.00 | 0.00 | 50 | 1013.0 |
| 20260906033142 | 87 | 137 | 0.9 | 0.0 | 0.00 | 0.00 | 0.00 | 49 | 1012.8 |
| 20260906032142 | 87 | 137 | 0.9 | 0.9 | 0.00 | 0.00 | 0.00 | 49 | 1012.7 |
| 20260906031642 | 88 | 137 | 0.9 | 2.6 | 0.00 | 0.00 | 0.00 | 49 | 1012.7 |
| 20260906030642 | 88 | 137 | 0.9 | 0.9 | 0.00 | 0.00 | 0.00 | 48 | 1012.6 |
| 20260906025642 | 88 | 137 | 0.9 | 0.0 | 0.00 | 0.00 | 0.00 | 47 | 1012.7 |
| 20260906025142 | 88 | 137 | 0.9 | 0.0 | 0.00 | 0.00 | 0.00 | 47 | 1012.6 |
| 20260906024642 | 89 | 137 | 0.9 | 0.0 | 0.00 | 0.00 | 0.00 | 47 | 1012.4 |
| 20260906024142 | 89 | 137 | 0.9 | 0.0 | 0.00 | 0.00 | 0.00 | 46 | 1012.4 |
| 20260906023642 | 89 | 137 | 0.9 | 0.9 | 0.00 | 0.00 | 0.00 | 46 | 1012.3 |
| 20260906023142 | 89 | 137 | 0.9 | 2.6 | 0.00 | 0.00 | 0.00 | 45 | 1012.2 |
| 20260906022642 | 90 | 137 | 0.9 | 2.6 | 0.00 | 0.00 | 0.00 | 45 | 1012.3 |
| 20260906022142 | 90 | 137 | 0.9 | 2.6 | 0.00 | 0.00 | 0.00 | 44 | 1012.1 |
| 20260906021642 | 90 | 137 | 0.9 | 0.9 | 0.00 | 0.00 | 0.00 | 44 | 1012.1 |
| 20260906021142 | 91 | 137 | 0.9 | 0.9 | 0.00 | 0.00 | 0.00 | 44 | 1012.0 |
| 20260906020142 | 91 | 137 | 0.9 | 2.6 | 0.00 | 0.00 | 0.00 | 43 | 1011.9 |
| 20260906015642 | 91 | 137 | 2.6 | 2.6 | 0.00 | 0.00 | 0.00 | 43 | 1011.8 |
| 20260906015142 | 91 | 137 | 0.9 | 0.9 | 0.00 | 0.00 | 0.00 | 43 | 1011.9 |
| 20260906014642 | 91 | 137 | 0.9 | 0.0 | 0.00 | 0.00 | 0.00 | 42 | 1011.6 |
| 20260906014142 | 91 | 137 | 0.9 | 0.0 | 0.00 | 0.00 | 0.00 | 42 | 1011.6 |
| 20260906013642 | 92 | 137 | 0.9 | 0.0 | 0.00 | 0.00 | 0.00 | 42 | 1011.5 |
| 20260906013142 | 92 | 137 | 0.9 | 0.0 | 0.00 | 0.00 | 0.00 | 41 | 1011.4 |
| 20260906012642 | 93 | 137 | 0.9 | 0.0 | 0.00 | 0.00 | 0.00 | 41 | 1011.4 |
| 20260906012142 | 93 | 137 | 0.9 | 0.0 | 0.00 | 0.00 | 0.00 | 40 | 1011.4 |
| 20260906011642 | 93 | 137 | 0.9 | 0.0 | 0.00 | 0.00 | 0.00 | 39 | 1011.4 |
| 20260906011142 | 94 | 137 | 0.9 | 0.0 | 0.00 | 0.00 | 0.00 | 39 | 1011.4 |
| 20260906010642 | 94 | 137 | 0.9 | 0.9 | 0.00 | 0.00 | 0.00 | 38 | 1011.3 |
| 20260906010142 | 94 | 137 | 0.9 | 2.6 | 0.00 | 0.00 | 0.00 | 38 | 1011.3 |
| 20260906005642 | 95 | 137 | 1.7 | 3.5 | 0.00 | 0.00 | 0.00 | 37 | 1011.4 |
| 20260906005142 | 95 | 137 | 1.7 | 3.5 | 0.00 | 0.00 | 0.00 | 37 | 1011.4 |
| 20260906004642 | 96 | 137 | 1.7 | 2.6 | 0.00 | 0.00 | 0.00 | 36 | 1011.1 |
| 20260906004142 | 96 | 136 | 1.7 | 2.6 | 0.00 | 0.00 | 0.00 | 36 | 1011.1 |
| 20260906003642 | 96 | 136 | 1.7 | 6.1 | 0.00 | 0.00 | 0.00 | 35 | 1011.0 |
| 20260906003142 | 97 | 136 | 0.9 | 7.8 | 0.00 | 0.00 | 0.00 | 35 | 1011.0 |
| 20260906002642 | 97 | 152 | 5.2 | 7.8 | 0.00 | 0.00 | 0.00 | 34 | 1011.0 |
| 20260906002142 | 97 | 157 | 2.6 | 7.8 | 0.00 | 0.00 | 0.00 | 34 | 1011.0 |
| 20260906001642 | 98 | 168 | 0.9 | 7.8 | 0.00 | 0.00 | 0.00 | 34 | 1011.0 |
| 20260906001142 | 98 | 141 | 4.3 | 4.3 | 0.00 | 0.00 | 0.00 | 33 | 1011.0 |
| 20260906000642 | 98 | 148 | 0.9 | 4.3 | 0.00 | 0.00 | 0.00 | 33 | 1010.9 |
| 20260906000142 | 98 | 148 | 4.3 | 4.3 | 0.00 | 0.00 | 0.00 | 33 | 1010.9 |
| 20260905235642 | 98 | 147 | 0.9 | 7.8 | 0.00 | 0.00 | 0.00 | 33 | 1011.0 |
| 20260905235142 | 98 | 168 | 1.7 | 7.8 | 0.00 | 0.00 | 0.00 | 33 | 1010.9 |
| 20260905234642 | 98 | 136 | 4.3 | 8.7 | 0.00 | 0.00 | 0.00 | 33 | 1010.9 |
| 20260905233642 | 99 | 207 | 9.6 | 8.7 | 0.00 | 0.00 | 0.00 | 32 | 1010.7 |
| 20260905233142 | 99 | 137 | 1.7 | 10.4 | 0.00 | 0.00 | 0.00 | 32 | 1010.7 |
| 20260905232142 | 99 | 189 | 4.3 | 7.0 | 0.00 | 0.00 | 0.00 | 32 | 1010.6 |
| 20260905231642 | 98 | 189 | 1.7 | 7.0 | 0.00 | 0.00 | 0.00 | 32 | 1010.7 |
| 20260905231142 | 98 | 182 | 4.3 | 7.0 | 0.00 | 0.00 | 0.00 | 33 | 1010.7 |
| 20260905230642 | 98 | 152 | 2.6 | 7.8 | 0.00 | 0.00 | 0.00 | 33 | 1010.7 |
| 20260905230142 | 98 | 144 | 4.3 | 7.8 | 0.00 | 0.00 | 0.00 | 33 | 1010.7 |
| 20260905225642 | 98 | 169 | 4.3 | 10.4 | 0.00 | 0.00 | 0.00 | 33 | 1010.6 |
| 20260905225142 | 98 | 143 | 7.8 | 14.8 | 0.00 | 0.00 | 0.00 | 33 | 1010.6 |
| 20260905224642 | 98 | 134 | 7.8 | 17.4 | 0.00 | 0.00 | 0.00 | 33 | 1010.7 |
| 20260905224142 | 99 | 142 | 14.8 | 17.4 | 0.00 | 0.00 | 0.00 | 32 | 1010.8 |
| 20260905223142 | 99 | 151 | 7.8 | 17.4 | 0.00 | 0.00 | 0.00 | 34 | 1010.6 |
| 20260905222142 | 99 | 140 | 10.4 | 12.2 | 0.00 | 0.00 | 0.00 | 33 | 1010.7 |
| 20260905221642 | 99 | 129 | 5.2 | 13.9 | 0.00 | 0.00 | 0.00 | 33 | 1010.7 |
| 20260905221142 | 99 | 138 | 7.8 | 13.9 | 0.00 | 0.00 | 0.00 | 33 | 1010.7 |
| 20260905220642 | 100 | 168 | 10.4 | 12.2 | 0.00 | 0.00 | 0.00 | 33 | 1010.8 |
| 20260905215642 | 99 | 161 | 7.0 | 11.3 | 0.00 | 0.00 | 0.00 | 34 | 1010.9 |
| 20260905214642 | 99 | 128 | 4.3 | 12.2 | 0.00 | 0.00 | 0.00 | 34 | 1011.0 |
| 20260905214142 | 99 | 135 | 5.2 | 12.2 | 0.00 | 0.00 | 0.00 | 33 | 1011.1 |
| 20260905213642 | 99 | 162 | 7.0 | 10.4 | 0.00 | 0.00 | 0.00 | 33 | 1011.1 |
| 20260905212642 | 99 | 236 | 7.0 | 14.8 | 0.00 | 0.00 | 0.00 | 34 | 1011.2 |
| 20260905210642 | 99 | 159 | 2.6 | 12.2 | 0.00 | 0.00 | 0.00 | 33 | 1011.6 |
| 20260905210142 | 100 | 149 | 7.8 | 12.2 | 0.00 | 0.00 | 0.00 | 32 | 1011.5 |
| 20260905205642 | 100 | 195 | 4.3 | 12.2 | 0.00 | 0.00 | 0.00 | 33 | 1011.6 |
| 20260905205142 | 100 | 251 | 6.1 | 12.2 | 0.00 | 0.00 | 0.00 | 33 | 1011.6 |
| 20260905204642 | 99 | 236 | 5.2 | 12.2 | 0.00 | 0.00 | 0.00 | 33 | 1011.6 |
| 20260905204142 | 100 | 193 | 5.2 | 11.3 | 0.00 | 0.00 | 0.00 | 34 | 1011.8 |
| 20260905203642 | 100 | 90 | 6.1 | 12.2 | 0.00 | 0.00 | 0.00 | 33 | 1011.9 |
| 20260905202642 | 99 | 139 | 7.8 | 12.2 | 0.00 | 0.00 | 0.00 | 34 | 1012.1 |